Current weather by "City, St" or "zip code"  
 

Current Conditions: Corinth, MS

Fair


66.0 F

Last Updated on Sep 18 2020, 12:55 am CDT
Humidity: 78%
Wind Speed: NW 3.5 mph
Barometer 29.97 in
Dewpoint: 59.0 F
Visibility: 10.00 mi
Precip: --
Heat Index: NA
Wind Chill: NA
Current conditions at:

Corinth, MS (KCRX)

Lat: 34.915 Lon: 88.6035

Local Radar Image active severe weather and emergency alerts image image weather storm and storm spotter reports image weather observation monitoring service image
Local
Radar
Active
Alerts
Storm Reports Obs
Monitoring

Sign-up For Email & Text Message Weather Alert Notification Services



Advertise Here

Observation History for Corinth, MS


Time Wind
(mph)
Vis
(mi)
Weather Precip (in) Temperature (F) Relative
Humidity
Wind
Chill
(F)
Heat
Index
(F)
Pressure
Air Dwpt altimeter
(in)
sea level
(mb)
Rmks
12:55 am CDT NW 3.5 10.00 Fair -- 66.0 59.0 78% NA NA 29.97 M
11:55 pm CDT NW 3.5 10.00 Fair -- 66.0 60.8 83% NA NA 29.97 M
10:55 pm CDT NW 4.6 10.00 Fair -- 68.0 60.8 78% NA NA 29.96 M
9:55 pm CDT NW 4.6 9.00 Fair -- 68.0 60.8 78% NA NA 29.96 M
8:55 pm CDT NW 5.8 10.00 Fair -- 70.0 60.8 73% NA NA 29.95 M
7:55 pm CDT NW 3.5 10.00 Fair -- 70.0 59.0 69% NA NA 29.93 M
6:55 pm CDT NW 4.6 10.00 Fair -- 72.0 59.0 65% NA NA 29.92 M
5:55 pm CDT NW 8.1 10.00 Fair -- 75.0 57.2 54% NA NA 29.91 M
4:55 pm CDT N 9.2 G 17.3 10.00 A Few Clouds -- 82.0 64.4 55% NA 83 29.89 M
3:55 pm CDT NW 10.4 G 17.3 10.00 A Few Clouds -- 84.0 64.4 51% NA 85 29.88 M
2:55 pm CDT NW 10.4 10.00 A Few Clouds -- 82.0 64.4 55% NA 83 29.89 M
1:55 pm CDT N 10.4 G 16.1 10.00 Mostly Cloudy -- 84.0 68.0 58% NA 87 29.90 M
12:55 pm CDT N 15.0 10.00 A Few Clouds -- 84.0 68.0 58% NA 87 29.92 M
11:55 am CDT NE 12.7 10.00 A Few Clouds -- 82.0 68.0 62% NA 85 29.93 M
10:55 am CDT N 15.0 10.00 Partly Cloudy -- 82.0 68.0 62% NA 85 29.94 M
9:55 am CDT N 10.4 10.00 Fair -- 81.0 69.8 70% NA 85 29.94 M
8:55 am CDT N 9.2 10.00 A Few Clouds -- 77.0 68.0 74% NA NA 29.92 M
7:55 am CDT N 6.9 10.00 Mostly Cloudy -- 73.0 68.0 83% NA NA 29.91 M
6:55 am CDT N 5.8 10.00 A Few Clouds -- 70.0 68.0 94% NA NA 29.89 M
5:55 am CDT N 4.6 10.00 Mostly Cloudy -- 70.0 68.0 94% NA NA 29.88 M
4:55 am CDT NW 3.5 10.00 Overcast -- 72.0 68.0 88% NA NA 29.88 M
3:55 am CDT NW 4.6 10.00 A Few Clouds -- 70.0 66.2 88% NA NA 29.89 M
2:55 am CDT NW 3.5 10.00 Overcast -- 72.0 68.0 88% NA NA 29.90 M
1:55 am CDT NW 4.6 10.00 Overcast -- 72.0 68.0 88% NA NA 29.91 M

Regional Weather Observation


Jackson, McKellar-Sipes Regional Airport, TN (KMKL)

Fair
64.0 F

Tupelo, Tupelo Regional Airport, MS (KTUP)

Fair
69.0 F

Olive Branch, Olive Branch Airport, MS (KOLV)

NULL
70.0 F

Millington, Millington Municipal Airport, TN (KNQA)

Fair
70.0 F

Memphis International Airport, TN (KMEM)

Mostly Cloudy
72.0 F

Oxford, University-Oxford Airport, MS (KUOX)

Fair
66.0 F